When you browse on this site, cookies collect data to enhance your experience and personalize the content and advertising you see.
Visit our Privacy Policy to learn more. By continuing to use the site, you agree to this use of cookies and data.
  • In Hungary
  • List of Countries
  • For 7 days
  • Water Temperature
  • Satellite Maps
  • Weather Map
  • News
  • Weather Widgets
  • user-avatar
    Login

    Hourly Weather Antioch

    Today, 18 June, Tuesday

    Time Temperature Precipitation Wind Pressure Humidity
    00:00 +20°C° 0 mm 2 mps 756 mmHg 64%
    01:00 +19°C° 0 mm 2 mps 756 mmHg 66%
    02:00 +19°C° 0 mm 2 mps 756 mmHg 66%
    03:00 +19°C° 0 mm 2 mps 756 mmHg 67%
    04:00 +18°C° 0 mm 2 mps 756 mmHg 68%
    05:00 +20°C° 0 mm 2 mps 756 mmHg 62%
    06:00 +23°C° 0 mm 2 mps 757 mmHg 57%
    07:00 +25°C° 0 mm 2 mps 757 mmHg 52%
    08:00 +28°C° 0 mm 2 mps 757 mmHg 45%
    09:00 +31°C° 0 mm 2 mps 757 mmHg 38%
    10:00 +35°C° 0 mm 2 mps 757 mmHg 30%
    11:00 +36°C° 0 mm 3 mps 757 mmHg 28%
    12:00 +38°C° 0 mm 3 mps 756 mmHg 25%
    13:00 +40°C° 0 mm 4 mps 756 mmHg 23%
    14:00 +39°C° 0 mm 5 mps 756 mmHg 24%
    15:00 +37°C° 0 mm 5 mps 756 mmHg 26%
    16:00 +36°C° 0 mm 6 mps 755 mmHg 28%
    17:00 +34°C° 0 mm 6 mps 756 mmHg 32%
    18:00 +30°C° 0 mm 5 mps 756 mmHg 37%
    19:00 +27°C° 0 mm 5 mps 756 mmHg 42%
    20:00 +25°C° 0 mm 4 mps 756 mmHg 47%
    21:00 +23°C° 0 mm 4 mps 757 mmHg 53%
    22:00 +21°C° 0 mm 4 mps 757 mmHg 58%
    23:00 +20°C° 0 mm 3 mps 757 mmHg 61%

    Tomorrow, 19 June, Wednesday

    Time Temperature Precipitation Wind Pressure Humidity
    00:00 +20°C° 0 mm 3 mps 756 mmHg 63%
    01:00 +19°C° 0 mm 2 mps 756 mmHg 66%
    02:00 +18°C° 0 mm 2 mps 756 mmHg 69%
    03:00 +18°C° 0 mm 2 mps 756 mmHg 72%
    04:00 +17°C° 0 mm 3 mps 756 mmHg 75%
    05:00 +19°C° 0 mm 2 mps 757 mmHg 69%
    06:00 +20°C° 0 mm 2 mps 757 mmHg 63%
    07:00 +23°C° 0 mm 2 mps 757 mmHg 57%
    08:00 +25°C° 0 mm 2 mps 757 mmHg 49%
    09:00 +28°C° 0 mm 2 mps 757 mmHg 40%
    10:00 +31°C° 0 mm 2 mps 757 mmHg 32%
    11:00 +34°C° 0 mm 3 mps 757 mmHg 29%
    12:00 +36°C° 0 mm 3 mps 756 mmHg 26%
    13:00 +37°C° 0 mm 4 mps 756 mmHg 23%
    14:00 +36°C° 0 mm 5 mps 756 mmHg 25%
    15:00 +35°C° 0 mm 5 mps 756 mmHg 26%
    16:00 +35°C° 0 mm 6 mps 755 mmHg 28%
    17:00 +32°C° 0 mm 6 mps 755 mmHg 34%
    18:00 +28°C° 0 mm 5 mps 755 mmHg 40%
    19:00 +25°C° 0 mm 5 mps 755 mmHg 46%
    20:00 +22°C° 0 mm 5 mps 756 mmHg 52%
    21:00 +21°C° 0 mm 4 mps 756 mmHg 58%
    22:00 +19°C° 0 mm 4 mps 756 mmHg 64%
    23:00 +18°C° 0 mm 4 mps 756 mmHg 67%

    Day after tomorrow, 20 June, Thursday

    Time Temperature Precipitation Wind Pressure Humidity
    00:00 +17°C° 0 mm 4 mps 756 mmHg 70%
    01:00 +17°C° 0 mm 3 mps 756 mmHg 73%
    02:00 +16°C° 0 mm 3 mps 755 mmHg 75%
    03:00 +16°C° 0 mm 3 mps 755 mmHg 78%
    04:00 +14°C° 0 mm 3 mps 755 mmHg 80%
    05:00 +17°C° 0 mm 3 mps 755 mmHg 75%
    06:00 +18°C° 0 mm 3 mps 755 mmHg 69%
    07:00 +19°C° 0 mm 3 mps 755 mmHg 64%
    08:00 +21°C° 0 mm 3 mps 755 mmHg 55%
    09:00 +25°C° 0 mm 3 mps 755 mmHg 47%
    10:00 +27°C° 0 mm 3 mps 755 mmHg 38%
    11:00 +28°C° 0 mm 4 mps 755 mmHg 36%
    12:00 +29°C° 0 mm 4 mps 754 mmHg 34%
    13:00 +30°C° 0 mm 5 mps 754 mmHg 32%
    14:00 +30°C° 0 mm 5 mps 754 mmHg 31%
    15:00 +30°C° 0 mm 4 mps 753 mmHg 31%
    16:00 +30°C° 0 mm 4 mps 753 mmHg 31%
    17:00 +28°C° 0 mm 4 mps 753 mmHg 33%
    18:00 +26°C° 0 mm 4 mps 753 mmHg 36%
    19:00 +25°C° 0 mm 3 mps 753 mmHg 38%
    20:00 +22°C° 0 mm 3 mps 753 mmHg 41%
    21:00 +20°C° 0 mm 3 mps 754 mmHg 45%
    22:00 +19°C° 0 mm 3 mps 754 mmHg 48%
    23:00 +18°C° 0 mm 3 mps 754 mmHg 51%

    21 June, Friday

    Time Temperature Precipitation Wind Pressure Humidity
    00:00 +17°C° 0 mm 3 mps 754 mmHg 55%
    01:00 +17°C° 0 mm 3 mps 753 mmHg 58%
    02:00 +17°C° 0 mm 3 mps 753 mmHg 59%
    03:00 +16°C° 0 mm 3 mps 753 mmHg 60%
    04:00 +16°C° 0 mm 3 mps 753 mmHg 60%
    05:00 +18°C° 0 mm 3 mps 754 mmHg 54%
    06:00 +19°C° 0 mm 3 mps 754 mmHg 48%
    07:00 +21°C° 0 mm 3 mps 754 mmHg 42%
    08:00 +24°C° 0 mm 3 mps 754 mmHg 35%
    09:00 +27°C° 0 mm 3 mps 754 mmHg 29%
    10:00 +29°C° 0 mm 4 mps 754 mmHg 22%
    11:00 +32°C° 0 mm 4 mps 754 mmHg 20%
    12:00 +33°C° 0 mm 4 mps 754 mmHg 18%
    13:00 +35°C° 0 mm 4 mps 754 mmHg 15%
    14:00 +35°C° 0 mm 4 mps 754 mmHg 16%
    15:00 +35°C° 0 mm 4 mps 754 mmHg 16%
    16:00 +35°C° 0 mm 5 mps 754 mmHg 17%
    17:00 +32°C° 0 mm 4 mps 754 mmHg 21%
    18:00 +29°C° 0 mm 4 mps 754 mmHg 25%
    19:00 +26°C° 0 mm 4 mps 754 mmHg 30%
    20:00 +25°C° 0 mm 3 mps 754 mmHg 33%
    21:00 +22°C° 0 mm 3 mps 755 mmHg 36%
    22:00 +20°C° 0 mm 3 mps 755 mmHg 39%
    23:00 +19°C° 0 mm 3 mps 755 mmHg 42%

    22 June, Saturday

    Time Temperature Precipitation Wind Pressure Humidity
    00:00 +19°C° 0 mm 3 mps 755 mmHg 45%
    01:00 +18°C° 0 mm 2 mps 755 mmHg 48%
    02:00 +17°C° 0 mm 2 mps 755 mmHg 52%
    03:00 +17°C° 0 mm 2 mps 755 mmHg 55%
    04:00 +16°C° 0 mm 2 mps 755 mmHg 59%
    05:00 +18°C° 0 mm 2 mps 756 mmHg 53%
    06:00 +19°C° 0 mm 2 mps 756 mmHg 48%
    07:00 +22°C° 0 mm 1 mps 756 mmHg 43%
    08:00 +25°C° 0 mm 1 mps 756 mmHg 36%
    09:00 +28°C° 0 mm 2 mps 756 mmHg 29%
    10:00 +31°C° 0 mm 2 mps 757 mmHg 23%
    11:00 +32°C° 0 mm 2 mps 756 mmHg 21%
    12:00 +35°C° 0 mm 3 mps 756 mmHg 19%
    13:00 +36°C° 0 mm 3 mps 756 mmHg 17%
    14:00 +36°C° 0 mm 4 mps 756 mmHg 17%
    15:00 +36°C° 0 mm 4 mps 756 mmHg 17%
    16:00 +35°C° 0 mm 5 mps 755 mmHg 17%
    17:00 +33°C° 0 mm 5 mps 756 mmHg 21%
    18:00 +29°C° 0 mm 4 mps 756 mmHg 26%
    19:00 +26°C° 0 mm 4 mps 756 mmHg 30%
    20:00 +23°C° 0 mm 4 mps 756 mmHg 35%
    21:00 +21°C° 0 mm 3 mps 756 mmHg 40%
    22:00 +19°C° 0 mm 3 mps 757 mmHg 45%
    23:00 +19°C° 0 mm 3 mps 756 mmHg 48%

    23 June, Sunday

    Time Temperature Precipitation Wind Pressure Humidity
    00:00 +18°C° 0 mm 2 mps 756 mmHg 51%
    01:00 +17°C° 0 mm 2 mps 756 mmHg 55%
    02:00 +16°C° 0 mm 1 mps 756 mmHg 58%
    03:00 +16°C° 0 mm 1 mps 756 mmHg 61%
    04:00 +15°C° 0 mm 1 mps 756 mmHg 65%
    05:00 +18°C° 0 mm 1 mps 756 mmHg 60%
    06:00 +20°C° 0 mm 1 mps 756 mmHg 54%
    07:00 +21°C° 0 mm 1 mps 756 mmHg 49%
    08:00 +24°C° 0 mm 1 mps 756 mmHg 42%
    09:00 +27°C° 0 mm 1 mps 756 mmHg 34%
    10:00 +30°C° 0 mm 2 mps 756 mmHg 26%
    11:00 +31°C° 0 mm 2 mps 755 mmHg 23%
    12:00 +34°C° 0 mm 3 mps 755 mmHg 21%
    13:00 +35°C° 0 mm 3 mps 755 mmHg 18%
    14:00 +35°C° 0 mm 4 mps 754 mmHg 20%
    15:00 +34°C° 0 mm 5 mps 754 mmHg 22%
    16:00 +33°C° 0 mm 5 mps 754 mmHg 23%
    17:00 +30°C° 0 mm 5 mps 754 mmHg 28%
    18:00 +28°C° 0 mm 4 mps 754 mmHg 34%
    19:00 +25°C° 0 mm 4 mps 754 mmHg 39%
    20:00 +22°C° 0 mm 4 mps 754 mmHg 44%
    21:00 +20°C° 0 mm 3 mps 754 mmHg 50%
    22:00 +18°C° 0 mm 3 mps 754 mmHg 56%
    23:00 +18°C° 0 mm 3 mps 754 mmHg 59%
    Show more